When you browse on this site, cookies collect data to enhance your experience and personalize the content and advertising you see.
Visit our Privacy Policy to learn more. By continuing to use the site, you agree to this use of cookies and data.
  • In Österreich
  • Länderverzeichnis
  • Für 7 Tage
  • Wassertemperatur
  • Satellitenkarten
  • Wetterkarte
  • News
  • Widgets
  • user-avatar
    Anmelden

    Stündliche Wetter Marsa Alam

    Heute, 18 November, Sonntag

    Zeit Temperatur Niederschläge Wind Luftdruck Luftfeuchtigkeit
    00:00 +18°C° 0 mm 3 m/S 717 mmHg 65%
    01:00 +18°C° 0 mm 3 m/S 717 mmHg 62%
    02:00 +18°C° 0 mm 3 m/S 716 mmHg 58%
    03:00 +18°C° 0 mm 3 m/S 716 mmHg 56%
    04:00 +17°C° 0 mm 3 m/S 716 mmHg 55%
    05:00 +17°C° 0 mm 3 m/S 716 mmHg 54%
    06:00 +18°C° 0 mm 3 m/S 716 mmHg 50%
    07:00 +20°C° 0 mm 3 m/S 717 mmHg 46%
    08:00 +22°C° 0 mm 3 m/S 717 mmHg 41%
    09:00 +24°C° 0 mm 3 m/S 717 mmHg 38%
    10:00 +25°C° 0 mm 3 m/S 717 mmHg 35%
    11:00 +27°C° 0 mm 3 m/S 717 mmHg 32%
    12:00 +27°C° 0 mm 3 m/S 717 mmHg 32%
    13:00 +28°C° 0 mm 3 m/S 716 mmHg 31%
    14:00 +28°C° 0 mm 3 m/S 716 mmHg 28%
    15:00 +27°C° 0 mm 3 m/S 716 mmHg 31%
    16:00 +26°C° 0 mm 3 m/S 716 mmHg 34%
    17:00 +26°C° 0 mm 3 m/S 715 mmHg 37%
    18:00 +25°C° 0 mm 2 m/S 716 mmHg 41%
    19:00 +24°C° 0 mm 2 m/S 716 mmHg 44%
    20:00 +23°C° 0 mm 1 m/S 716 mmHg 48%
    21:00 +22°C° 0 mm 1 m/S 716 mmHg 48%
    22:00 +22°C° 0 mm 1 m/S 716 mmHg 49%
    23:00 +21°C° 0 mm 1 m/S 716 mmHg 50%

    Morgen, 19 November, Montag

    Zeit Temperatur Niederschläge Wind Luftdruck Luftfeuchtigkeit
    00:00 +21°C° 0 mm 1 m/S 716 mmHg 49%
    01:00 +20°C° 0 mm 1 m/S 715 mmHg 48%
    02:00 +20°C° 0 mm 1 m/S 715 mmHg 48%
    03:00 +20°C° 0 mm 1 m/S 715 mmHg 47%
    04:00 +19°C° 0 mm 1 m/S 715 mmHg 46%
    05:00 +19°C° 0 mm 1 m/S 715 mmHg 45%
    06:00 +20°C° 0 mm 1 m/S 716 mmHg 40%
    07:00 +22°C° 0 mm 1 m/S 716 mmHg 35%
    08:00 +24°C° 0 mm 1 m/S 717 mmHg 30%
    09:00 +25°C° 0 mm 1 m/S 717 mmHg 27%
    10:00 +26°C° 0 mm 1 m/S 717 mmHg 24%
    11:00 +28°C° 0 mm 1 m/S 717 mmHg 21%
    12:00 +28°C° 0 mm 2 m/S 717 mmHg 20%
    13:00 +29°C° 0 mm 3 m/S 717 mmHg 19%
    14:00 +29°C° 0 mm 3 m/S 717 mmHg 18%
    15:00 +28°C° 0 mm 3 m/S 717 mmHg 23%
    16:00 +27°C° 0 mm 3 m/S 716 mmHg 27%
    17:00 +26°C° 0 mm 3 m/S 716 mmHg 32%
    18:00 +25°C° 0 mm 3 m/S 717 mmHg 37%
    19:00 +24°C° 0 mm 3 m/S 717 mmHg 43%
    20:00 +23°C° 0 mm 2 m/S 717 mmHg 48%
    21:00 +21°C° 0 mm 2 m/S 717 mmHg 52%
    22:00 +21°C° 0 mm 2 m/S 717 mmHg 56%
    23:00 +20°C° 0 mm 2 m/S 717 mmHg 60%

    übermorgen, 20 November, Dienstag

    Zeit Temperatur Niederschläge Wind Luftdruck Luftfeuchtigkeit
    00:00 +20°C° 0 mm 2 m/S 717 mmHg 61%
    01:00 +19°C° 0 mm 2 m/S 717 mmHg 61%
    02:00 +19°C° 0 mm 2 m/S 717 mmHg 62%
    03:00 +18°C° 0 mm 3 m/S 717 mmHg 59%
    04:00 +18°C° 0 mm 3 m/S 717 mmHg 56%
    05:00 +17°C° 0 mm 3 m/S 717 mmHg 54%
    06:00 +19°C° 0 mm 3 m/S 717 mmHg 48%
    07:00 +20°C° 0 mm 3 m/S 718 mmHg 42%
    08:00 +22°C° 0 mm 3 m/S 719 mmHg 36%
    09:00 +23°C° 0 mm 4 m/S 719 mmHg 33%
    10:00 +26°C° 0 mm 4 m/S 719 mmHg 31%
    11:00 +28°C° 0 mm 5 m/S 719 mmHg 28%
    12:00 +28°C° 0 mm 5 m/S 718 mmHg 29%
    13:00 +28°C° 0 mm 6 m/S 718 mmHg 30%
    14:00 +29°C° 0 mm 6 m/S 717 mmHg 31%
    15:00 +27°C° 0 mm 6 m/S 717 mmHg 36%
    16:00 +26°C° 0 mm 5 m/S 717 mmHg 42%
    17:00 +25°C° 0 mm 5 m/S 716 mmHg 47%
    18:00 +23°C° 0 mm 4 m/S 717 mmHg 51%
    19:00 +22°C° 0 mm 4 m/S 717 mmHg 54%
    20:00 +22°C° 0 mm 3 m/S 717 mmHg 58%
    21:00 +21°C° 0 mm 3 m/S 717 mmHg 57%
    22:00 +21°C° 0 mm 3 m/S 717 mmHg 57%
    23:00 +21°C° 0 mm 3 m/S 717 mmHg 56%

    21 November, Mittwoch

    Zeit Temperatur Niederschläge Wind Luftdruck Luftfeuchtigkeit
    00:00 +21°C° 0 mm 3 m/S 717 mmHg 56%
    01:00 +20°C° 0 mm 3 m/S 717 mmHg 57%
    02:00 +20°C° 0 mm 3 m/S 716 mmHg 57%
    03:00 +20°C° 0 mm 3 m/S 716 mmHg 59%
    04:00 +19°C° 0 mm 3 m/S 716 mmHg 61%
    05:00 +19°C° 0 mm 3 m/S 716 mmHg 63%
    06:00 +20°C° 0 mm 3 m/S 716 mmHg 57%
    07:00 +22°C° 0 mm 4 m/S 717 mmHg 51%
    08:00 +23°C° 0 mm 4 m/S 717 mmHg 45%
    09:00 +25°C° 0 mm 4 m/S 717 mmHg 41%
    10:00 +27°C° 0 mm 4 m/S 717 mmHg 36%
    11:00 +29°C° 0 mm 4 m/S 717 mmHg 31%
    12:00 +29°C° 0 mm 4 m/S 717 mmHg 31%
    13:00 +29°C° 0 mm 4 m/S 716 mmHg 31%
    14:00 +30°C° 0 mm 4 m/S 715 mmHg 31%
    15:00 +28°C° 0 mm 4 m/S 715 mmHg 36%
    16:00 +27°C° 0 mm 4 m/S 715 mmHg 41%
    17:00 +26°C° 0 mm 4 m/S 715 mmHg 46%
    18:00 +25°C° 0 mm 3 m/S 715 mmHg 50%
    19:00 +24°C° 0 mm 3 m/S 716 mmHg 55%
    20:00 +24°C° 0 mm 2 m/S 716 mmHg 59%
    21:00 +23°C° 0 mm 2 m/S 716 mmHg 59%
    22:00 +23°C° 0 mm 2 m/S 716 mmHg 59%
    23:00 +21°C° 0 mm 2 m/S 716 mmHg 58%

    22 November, Donnerstag

    Zeit Temperatur Niederschläge Wind Luftdruck Luftfeuchtigkeit
    00:00 +21°C° 0 mm 2 m/S 715 mmHg 57%
    01:00 +21°C° 0 mm 2 m/S 715 mmHg 55%
    02:00 +20°C° 0 mm 2 m/S 714 mmHg 53%
    03:00 +20°C° 0 mm 2 m/S 714 mmHg 53%
    04:00 +20°C° 0 mm 2 m/S 714 mmHg 53%
    05:00 +19°C° 0 mm 2 m/S 714 mmHg 53%
    06:00 +21°C° 0 mm 2 m/S 715 mmHg 48%
    07:00 +23°C° 0 mm 2 m/S 715 mmHg 43%
    08:00 +24°C° 0 mm 2 m/S 716 mmHg 38%
    09:00 +26°C° 0 mm 3 m/S 716 mmHg 33%
    10:00 +27°C° 0 mm 3 m/S 716 mmHg 29%
    11:00 +28°C° 0 mm 3 m/S 716 mmHg 24%
    12:00 +29°C° 0 mm 4 m/S 715 mmHg 23%
    13:00 +29°C° 0 mm 4 m/S 715 mmHg 22%
    14:00 +30°C° 0 mm 4 m/S 714 mmHg 20%
    15:00 +29°C° 0 mm 4 m/S 714 mmHg 23%
    16:00 +28°C° 0 mm 3 m/S 714 mmHg 25%
    17:00 +27°C° 0 mm 3 m/S 714 mmHg 28%
    18:00 +25°C° 0 mm 3 m/S 714 mmHg 30%
    19:00 +24°C° 0 mm 2 m/S 715 mmHg 33%
    20:00 +23°C° 0 mm 2 m/S 715 mmHg 36%
    21:00 +23°C° 0 mm 1 m/S 715 mmHg 36%
    22:00 +22°C° 0 mm 1 m/S 715 mmHg 35%
    23:00 +22°C° 0 mm 1 m/S 715 mmHg 35%

    23 November, Freitag

    Zeit Temperatur Niederschläge Wind Luftdruck Luftfeuchtigkeit
    00:00 +21°C° 0 mm 1 m/S 714 mmHg 34%
    01:00 +21°C° 0 mm 1 m/S 714 mmHg 33%
    02:00 +20°C° 0 mm 1 m/S 714 mmHg 32%
    03:00 +20°C° 0 mm 1 m/S 714 mmHg 32%
    04:00 +19°C° 0 mm 1 m/S 714 mmHg 32%
    05:00 +19°C° 0 mm 1 m/S 714 mmHg 32%
    06:00 +20°C° 0 mm 2 m/S 715 mmHg 30%
    07:00 +21°C° 0 mm 2 m/S 716 mmHg 27%
    08:00 +24°C° 0 mm 2 m/S 716 mmHg 24%
    09:00 +25°C° 0 mm 3 m/S 716 mmHg 24%
    10:00 +26°C° 0 mm 3 m/S 716 mmHg 23%
    11:00 +27°C° 0 mm 4 m/S 716 mmHg 22%
    12:00 +27°C° 0 mm 4 m/S 716 mmHg 21%
    13:00 +28°C° 0 mm 5 m/S 715 mmHg 21%
    14:00 +28°C° 0 mm 5 m/S 715 mmHg 20%
    15:00 +27°C° 0 mm 5 m/S 715 mmHg 23%
    16:00 +26°C° 0 mm 5 m/S 715 mmHg 27%
    17:00 +23°C° 0 mm 4 m/S 715 mmHg 30%
    18:00 +22°C° 0 mm 4 m/S 716 mmHg 33%
    19:00 +22°C° 0 mm 3 m/S 716 mmHg 36%
    20:00 +21°C° 0 mm 3 m/S 716 mmHg 39%
    21:00 +20°C° 0 mm 3 m/S 716 mmHg 41%
    22:00 +19°C° 0 mm 3 m/S 716 mmHg 42%
    23:00 +19°C° 0 mm 3 m/S 716 mmHg 44%
    Mehr zeigen